User: anonymous
Location: Nirvana
(45.0297°N, 77.2628°W)
Time: 01:30:20
(UTC-04:00)
Language:

H-2A R/B - Orbit

View from above orbital plane
View from above orbital plane
View from above satellite
View from above satellite

Ground track
Ground track

The orbit data is extracted from the following two-line orbital elements,

1 27601U 02056E   14259.76346479  .00000143  00000-0  67865-4 0  1813
2 27601 098.4780 340.2881 0072699 029.5793 127.6357 14.31410728614090
Epoch (UTC): 16 September 2014 18:19:23
Eccentricity: 0.0072699
inclination: 98.4780°
perigee height: 735 km
apogee height: 839 km
right ascension of ascending node: 340.2881°
argument of perigee: 29.5793°
revolutions per day: 14.31410728
mean anomaly at epoch: 127.6357°
orbit number at epoch: 61409

The dashed part of the orbit path shows where the satellite is in the earth's shadow,  

DLR